Time,TemperatureF,DewpointF,PressureIn,WindDirection,WindDirectionDegrees,WindSpeedMPH,WindSpeedGustMPH,Humidity,HourlyPrecipIn,Conditions,Clouds,dailyrainin,SolarRadiationWatts/m^2,SoftwareType,DateUTC
2013-05-06 00:02:00,37.0,20.0,-100.00,NE,47,0.0,3.0,50,0.00,,,0.00,1.000000,,2013-05-06 06:02:00,
2013-05-06 00:12:00,37.0,20.0,-100.00,NE,47,0.0,3.0,50,0.00,,,0.00,1.000000,,2013-05-06 06:12:00,
2013-05-06 00:21:00,37.0,20.0,-100.00,NE,47,0.0,3.0,50,0.00,,,0.00,1.000000,,2013-05-06 06:21:00,
2013-05-06 00:42:00,36.0,20.0,-100.00,East,95,0.0,2.0,52,0.00,,,-99.99,1.000000,,2013-05-06 06:42:00,
2013-05-06 00:52:00,36.0,20.0,-100.00,East,95,0.0,2.0,52,0.00,,,-99.99,1.000000,,2013-05-06 06:52:00,
2013-05-06 01:01:00,36.0,20.0,-100.00,East,95,0.0,2.0,52,0.00,,,-99.99,1.000000,,2013-05-06 07:01:00,
2013-05-06 01:11:00,36.0,20.0,-100.00,East,95,0.0,2.0,52,0.00,,,-99.99,1.000000,,2013-05-06 07:11:00,
2013-05-06 01:22:00,36.0,20.0,-100.00,East,95,0.0,2.0,52,0.00,,,-99.99,1.000000,,2013-05-06 07:22:00,
2013-05-06 01:42:00,36.0,18.0,-100.00,NNW,344,0.0,0.0,48,0.00,,,0.00,1.000000,,2013-05-06 07:42:00,
2013-05-06 01:52:00,36.0,18.0,-100.00,NNW,344,0.0,0.0,48,0.00,,,0.00,1.000000,,2013-05-06 07:52:00,
2013-05-06 02:02:00,36.0,18.0,-100.00,NNW,344,0.0,0.0,48,0.00,,,0.00,1.000000,,2013-05-06 08:02:00,
2013-05-06 02:12:00,36.0,18.0,-100.00,NNW,344,0.0,0.0,48,0.00,,,0.00,1.000000,,2013-05-06 08:12:00,
2013-05-06 02:22:00,36.0,18.0,-100.00,NNW,344,0.0,0.0,48,0.00,,,0.00,1.000000,,2013-05-06 08:22:00,
2013-05-06 02:42:00,37.0,18.0,-100.00,NNW,347,0.0,2.0,46,0.00,,,0.00,0.000000,,2013-05-06 08:42:00,
2013-05-06 02:52:00,37.0,18.0,-100.00,NNW,347,0.0,2.0,46,0.00,,,0.00,0.000000,,2013-05-06 08:52:00,
2013-05-06 03:01:00,37.0,18.0,-100.00,NNW,347,0.0,2.0,46,0.00,,,0.00,0.000000,,2013-05-06 09:01:00,
2013-05-06 03:11:00,37.0,18.0,-100.00,NNW,347,0.0,2.0,46,0.00,,,0.00,0.000000,,2013-05-06 09:11:00,
2013-05-06 03:22:00,37.0,18.0,-100.00,NNW,347,0.0,2.0,46,0.00,,,0.00,0.000000,,2013-05-06 09:22:00,
2013-05-06 03:43:00,37.0,18.0,-100.00,NNW,337,0.0,0.0,45,0.00,,,0.00,1.000000,,2013-05-06 09:43:00,
2013-05-06 03:53:00,37.0,18.0,-100.00,NNW,337,0.0,0.0,45,0.00,,,0.00,1.000000,,2013-05-06 09:53:00,
2013-05-06 04:02:00,37.0,18.0,-100.00,NNW,337,0.0,0.0,45,0.00,,,0.00,1.000000,,2013-05-06 10:02:00,
2013-05-06 04:12:00,37.0,18.0,-100.00,NNW,337,0.0,0.0,45,0.00,,,0.00,1.000000,,2013-05-06 10:12:00,
2013-05-06 04:22:00,37.0,18.0,-100.00,NNW,337,0.0,0.0,45,0.00,,,0.00,1.000000,,2013-05-06 10:22:00,
2013-05-06 04:42:00,37.0,19.0,-100.00,NNW,343,2.0,2.0,47,0.00,,,0.00,1.000000,,2013-05-06 10:42:00,
2013-05-06 04:52:00,37.0,19.0,-100.00,NNW,343,2.0,2.0,47,0.00,,,0.00,1.000000,,2013-05-06 10:52:00,
2013-05-06 05:02:00,37.0,19.0,-100.00,NNW,343,2.0,2.0,47,0.00,,,0.00,1.000000,,2013-05-06 11:02:00,
2013-05-06 05:12:00,37.0,19.0,-100.00,NNW,343,2.0,2.0,47,0.00,,,0.00,1.000000,,2013-05-06 11:12:00,
2013-05-06 05:22:00,37.0,19.0,-100.00,NNW,343,2.0,2.0,47,0.00,,,0.00,1.000000,,2013-05-06 11:22:00,
2013-05-06 05:42:00,36.0,19.0,-100.00,NNW,330,0.0,2.0,49,0.00,,,0.00,1.000000,,2013-05-06 11:42:00,
2013-05-06 05:52:00,36.0,19.0,-100.00,NNW,330,0.0,2.0,49,0.00,,,0.00,1.000000,,2013-05-06 11:52:00,
2013-05-06 06:01:00,36.0,19.0,-100.00,NNW,330,0.0,2.0,49,0.00,,,0.00,1.000000,,2013-05-06 12:01:00,
2013-05-06 06:12:00,36.0,19.0,-100.00,NNW,330,0.0,2.0,49,0.00,,,0.00,1.000000,,2013-05-06 12:12:00,
2013-05-06 06:21:00,36.0,19.0,-100.00,NNW,330,0.0,2.0,49,0.00,,,0.00,1.000000,,2013-05-06 12:21:00,
2013-05-06 06:42:00,37.0,18.0,-100.00,NNW,340,2.0,3.0,45,0.00,,,0.00,10.000000,,2013-05-06 12:42:00,
2013-05-06 06:52:00,37.0,18.0,-100.00,NNW,340,2.0,3.0,45,0.00,,,0.00,10.000000,,2013-05-06 12:52:00,
2013-05-06 07:01:00,37.0,18.0,-100.00,NNW,340,2.0,3.0,45,0.00,,,0.00,10.000000,,2013-05-06 13:01:00,
2013-05-06 07:11:00,37.0,18.0,-100.00,NNW,340,2.0,3.0,45,0.00,,,0.00,10.000000,,2013-05-06 13:11:00,
2013-05-06 07:21:00,37.0,18.0,-100.00,NNW,340,2.0,3.0,45,0.00,,,0.00,10.000000,,2013-05-06 13:21:00,
2013-05-06 07:42:00,42.0,18.0,-100.00,WNW,301,0.0,3.0,38,0.00,,,0.00,52.000000,,2013-05-06 13:42:00,
2013-05-06 07:52:00,42.0,18.0,-100.00,WNW,301,0.0,3.0,38,0.00,,,0.00,52.000000,,2013-05-06 13:52:00,
2013-05-06 08:01:00,42.0,18.0,-100.00,WNW,301,0.0,3.0,38,0.00,,,0.00,52.000000,,2013-05-06 14:01:00,
2013-05-06 08:11:00,42.0,18.0,-100.00,WNW,301,0.0,3.0,38,0.00,,,0.00,52.000000,,2013-05-06 14:11:00,
2013-05-06 08:21:00,42.0,18.0,-100.00,WNW,301,0.0,3.0,38,0.00,,,0.00,52.000000,,2013-05-06 14:21:00,
2013-05-06 08:42:00,49.0,16.0,-100.00,SW,214,2.0,6.0,27,0.00,,,0.00,360.000000,,2013-05-06 14:42:00,
2013-05-06 08:52:00,49.0,16.0,-100.00,SW,214,2.0,6.0,27,0.00,,,0.00,360.000000,,2013-05-06 14:52:00,
2013-05-06 09:01:00,49.0,16.0,-100.00,SW,214,2.0,6.0,27,0.00,,,0.00,360.000000,,2013-05-06 15:01:00,
2013-05-06 09:11:00,49.0,16.0,-100.00,SW,214,2.0,6.0,27,0.00,,,0.00,360.000000,,2013-05-06 15:11:00,
2013-05-06 09:21:00,49.0,16.0,-100.00,SW,214,2.0,6.0,27,0.00,,,0.00,360.000000,,2013-05-06 15:21:00,
2013-05-06 09:43:00,52.0,22.0,-100.00,SSW,208,4.0,8.0,30,0.00,,,0.00,560.000000,,2013-05-06 15:43:00,
2013-05-06 09:53:00,52.0,22.0,-100.00,SSW,208,4.0,8.0,30,0.00,,,0.00,560.000000,,2013-05-06 15:53:00,
2013-05-06 10:03:00,52.0,22.0,-100.00,SSW,208,4.0,8.0,30,0.00,,,0.00,560.000000,,2013-05-06 16:03:00,
2013-05-06 10:13:00,52.0,22.0,-100.00,SSW,208,4.0,8.0,30,0.00,,,0.00,560.000000,,2013-05-06 16:13:00,
2013-05-06 10:23:00,52.0,22.0,-100.00,SSW,208,4.0,8.0,30,0.00,,,0.00,560.000000,,2013-05-06 16:23:00,
2013-05-06 10:42:00,56.0,23.0,-100.00,West,259,3.0,10.0,27,0.00,,,0.00,735.000000,,2013-05-06 16:42:00,
2013-05-06 10:52:00,56.0,23.0,-100.00,West,259,3.0,10.0,27,0.00,,,0.00,735.000000,,2013-05-06 16:52:00,
2013-05-06 11:03:00,56.0,23.0,-100.00,West,259,3.0,10.0,27,0.00,,,0.00,735.000000,,2013-05-06 17:03:00,
2013-05-06 11:12:00,56.0,23.0,-100.00,West,259,3.0,10.0,27,0.00,,,0.00,735.000000,,2013-05-06 17:12:00,
2013-05-06 11:23:00,56.0,23.0,-100.00,West,259,3.0,10.0,27,0.00,,,0.00,735.000000,,2013-05-06 17:23:00,
2013-05-06 11:42:00,58.0,23.0,-100.00,SW,231,5.0,11.0,26,0.00,,,0.00,875.000000,,2013-05-06 17:42:00,
2013-05-06 11:52:00,58.0,23.0,-100.00,SW,231,5.0,11.0,26,0.00,,,0.00,875.000000,,2013-05-06 17:52:00,
2013-05-06 12:01:00,58.0,23.0,-100.00,SW,231,5.0,11.0,26,0.00,,,0.00,875.000000,,2013-05-06 18:01:00,
2013-05-06 12:12:00,58.0,23.0,-100.00,SW,231,5.0,11.0,26,0.00,,,0.00,875.000000,,2013-05-06 18:12:00,
2013-05-06 12:21:00,58.0,23.0,-100.00,SW,231,5.0,11.0,26,0.00,,,0.00,875.000000,,2013-05-06 18:21:00,
2013-05-06 12:43:00,61.0,24.0,-100.00,WSW,250,4.0,12.0,24,0.00,,,0.00,984.000000,,2013-05-06 18:43:00,
2013-05-06 12:52:00,61.0,24.0,-100.00,WSW,250,4.0,12.0,24,0.00,,,0.00,984.000000,,2013-05-06 18:52:00,
2013-05-06 13:01:00,61.0,24.0,-100.00,WSW,250,4.0,12.0,24,0.00,,,0.00,984.000000,,2013-05-06 19:01:00,
2013-05-06 13:11:00,61.0,24.0,-100.00,WSW,250,4.0,12.0,24,0.00,,,0.00,984.000000,,2013-05-06 19:11:00,
2013-05-06 13:22:00,61.0,24.0,-100.00,WSW,250,4.0,12.0,24,0.00,,,0.00,984.000000,,2013-05-06 19:22:00,
2013-05-06 13:42:00,60.0,22.0,-100.00,South,187,4.0,13.0,23,0.00,,,0.00,1010.000000,,2013-05-06 19:42:00,
2013-05-06 13:52:00,60.0,22.0,-100.00,South,187,4.0,13.0,23,0.00,,,0.00,1010.000000,,2013-05-06 19:52:00,
2013-05-06 14:02:00,60.0,22.0,-100.00,South,187,4.0,13.0,23,0.00,,,0.00,1010.000000,,2013-05-06 20:02:00,
2013-05-06 14:11:00,60.0,22.0,-100.00,South,187,4.0,13.0,23,0.00,,,0.00,1010.000000,,2013-05-06 20:11:00,
2013-05-06 14:21:00,60.0,22.0,-100.00,South,187,4.0,13.0,23,0.00,,,0.00,1010.000000,,2013-05-06 20:21:00,
2013-05-06 14:42:00,61.0,22.0,-100.00,South,169,6.0,13.0,22,0.00,,,0.00,958.000000,,2013-05-06 20:42:00,
2013-05-06 14:52:00,61.0,22.0,-100.00,South,169,6.0,13.0,22,0.00,,,0.00,958.000000,,2013-05-06 20:52:00,
2013-05-06 15:01:00,61.0,22.0,-100.00,South,169,6.0,13.0,22,0.00,,,0.00,958.000000,,2013-05-06 21:01:00,
2013-05-06 15:11:00,61.0,22.0,-100.00,South,169,6.0,13.0,22,0.00,,,0.00,958.000000,,2013-05-06 21:11:00,
2013-05-06 15:21:00,61.0,22.0,-100.00,South,169,6.0,13.0,22,0.00,,,0.00,958.000000,,2013-05-06 21:21:00,
2013-05-06 15:43:00,64.0,23.0,-100.00,SSW,209,4.0,12.0,21,0.00,,,0.00,989.000000,,2013-05-06 21:43:00,
2013-05-06 15:53:00,64.0,23.0,-100.00,SSW,209,4.0,12.0,21,0.00,,,0.00,989.000000,,2013-05-06 21:53:00,
2013-05-06 16:03:00,64.0,23.0,-100.00,SSW,209,4.0,12.0,21,0.00,,,0.00,989.000000,,2013-05-06 22:03:00,
2013-05-06 16:12:00,64.0,23.0,-100.00,SSW,209,4.0,12.0,21,0.00,,,0.00,989.000000,,2013-05-06 22:12:00,
2013-05-06 16:22:00,64.0,23.0,-100.00,SSW,209,4.0,12.0,21,0.00,,,0.00,989.000000,,2013-05-06 22:22:00,
2013-05-06 16:45:00,62.0,22.0,-100.00,SSE,166,6.0,10.0,21,0.00,,,0.00,829.000000,,2013-05-06 22:45:00,
2013-05-06 16:52:00,62.0,22.0,-100.00,SSE,166,6.0,10.0,21,0.00,,,0.00,829.000000,,2013-05-06 22:52:00,
2013-05-06 17:03:00,62.0,22.0,-100.00,SSE,166,6.0,10.0,21,0.00,,,0.00,829.000000,,2013-05-06 23:03:00,
2013-05-06 17:12:00,62.0,22.0,-100.00,SSE,166,6.0,10.0,21,0.00,,,0.00,829.000000,,2013-05-06 23:12:00,
2013-05-06 17:22:00,62.0,22.0,-100.00,SSE,166,6.0,10.0,21,0.00,,,0.00,829.000000,,2013-05-06 23:22:00,
2013-05-06 17:42:00,59.0,23.0,-100.00,South,176,6.0,11.0,25,0.00,,,0.00,447.000000,,2013-05-06 23:42:00,
2013-05-06 17:52:00,59.0,23.0,-100.00,South,176,6.0,11.0,25,0.00,,,0.00,447.000000,,2013-05-06 23:52:00,
2013-05-06 18:01:00,59.0,23.0,-100.00,South,176,6.0,11.0,25,0.00,,,0.00,447.000000,,2013-05-07 00:01:00,
2013-05-06 18:11:00,59.0,23.0,-100.00,South,176,6.0,11.0,25,0.00,,,0.00,447.000000,,2013-05-07 00:11:00,
2013-05-06 18:21:00,59.0,23.0,-100.00,South,176,6.0,11.0,25,0.00,,,0.00,447.000000,,2013-05-07 00:21:00,
2013-05-06 18:42:00,56.0,25.0,-100.00,SE,146,4.0,10.0,30,0.00,,,0.00,125.000000,,2013-05-07 00:42:00,
2013-05-06 18:52:00,56.0,25.0,-100.00,SE,146,4.0,10.0,30,0.00,,,0.00,125.000000,,2013-05-07 00:52:00,
2013-05-06 19:01:00,56.0,25.0,-100.00,SE,146,4.0,10.0,30,0.00,,,0.00,125.000000,,2013-05-07 01:01:00,
2013-05-06 19:11:00,56.0,25.0,-100.00,SE,146,4.0,10.0,30,0.00,,,0.00,125.000000,,2013-05-07 01:11:00,
2013-05-06 19:21:00,56.0,25.0,-100.00,SE,146,4.0,10.0,30,0.00,,,0.00,125.000000,,2013-05-07 01:21:00,
2013-05-06 19:42:00,54.0,26.0,-100.00,SE,129,3.0,7.0,33,0.00,,,0.00,60.000000,,2013-05-07 01:42:00,
2013-05-06 19:53:00,54.0,26.0,-100.00,SE,129,3.0,7.0,33,0.00,,,0.00,60.000000,,2013-05-07 01:53:00,
2013-05-06 20:02:00,54.0,26.0,-100.00,SE,129,3.0,7.0,33,0.00,,,0.00,60.000000,,2013-05-07 02:02:00,
2013-05-06 20:11:00,54.0,26.0,-100.00,SE,129,3.0,7.0,33,0.00,,,0.00,60.000000,,2013-05-07 02:11:00,
2013-05-06 20:21:00,54.0,26.0,-100.00,SE,129,3.0,7.0,33,0.00,,,0.00,60.000000,,2013-05-07 02:21:00,
2013-05-06 20:42:00,47.0,25.0,-100.00,SSE,151,2.0,8.0,41,0.00,,,0.00,11.000000,,2013-05-07 02:42:00,
2013-05-06 20:52:00,47.0,25.0,-100.00,SSE,151,2.0,8.0,41,0.00,,,0.00,11.000000,,2013-05-07 02:52:00,
2013-05-06 21:01:00,47.0,25.0,-100.00,SSE,151,2.0,8.0,41,0.00,,,0.00,11.000000,,2013-05-07 03:01:00,
2013-05-06 21:11:00,47.0,25.0,-100.00,SSE,151,2.0,8.0,41,0.00,,,0.00,11.000000,,2013-05-07 03:11:00,
2013-05-06 21:21:00,47.0,25.0,-100.00,SSE,151,2.0,8.0,41,0.00,,,0.00,11.000000,,2013-05-07 03:21:00,
2013-05-06 21:43:00,45.0,24.0,-100.00,SSW,200,1.0,5.0,43,0.00,,,0.00,1.000000,,2013-05-07 03:43:00,
2013-05-06 21:53:00,45.0,24.0,-100.00,SSW,200,1.0,5.0,43,0.00,,,0.00,1.000000,,2013-05-07 03:53:00,
2013-05-06 22:03:00,45.0,24.0,-100.00,SSW,200,1.0,5.0,43,0.00,,,0.00,1.000000,,2013-05-07 04:03:00,
2013-05-06 22:12:00,45.0,24.0,-100.00,SSW,200,1.0,5.0,43,0.00,,,0.00,1.000000,,2013-05-07 04:12:00,
2013-05-06 22:23:00,45.0,24.0,-100.00,SSW,200,1.0,5.0,43,0.00,,,0.00,1.000000,,2013-05-07 04:23:00,
2013-05-06 22:42:00,45.0,24.0,-100.00,ESE,123,2.0,6.0,43,0.00,,,0.00,1.000000,,2013-05-07 04:42:00,
2013-05-06 22:53:00,45.0,24.0,-100.00,ESE,123,2.0,6.0,43,0.00,,,0.00,1.000000,,2013-05-07 04:53:00,
2013-05-06 23:02:00,45.0,24.0,-100.00,ESE,123,2.0,6.0,43,0.00,,,0.00,1.000000,,2013-05-07 05:02:00,
2013-05-06 23:12:00,45.0,24.0,-100.00,ESE,123,2.0,6.0,43,0.00,,,0.00,1.000000,,2013-05-07 05:12:00,
2013-05-06 23:22:00,45.0,24.0,-100.00,ESE,123,2.0,6.0,43,0.00,,,0.00,1.000000,,2013-05-07 05:22:00,
2013-05-06 23:42:00,43.0,24.0,-100.00,SSE,150,1.0,4.0,46,0.00,,,0.00,1.000000,,2013-05-07 05:42:00,
2013-05-06 23:52:00,43.0,24.0,-100.00,SSE,150,1.0,4.0,46,0.00,,,0.00,1.000000,,2013-05-07 05:52:00,